| time (UTC) | temp C | wind direction | speed KPH | gust KPH | rain 1hr cm | rain 24hr cm | rain mn cm | humidity % | barometer mb |
| 20260507231050 | 13 | 0.0 | 0.0 | 0.00 | 0.51 | 0.51 | 96 | 1015.6 | |
| 20260507230043 | 13 | 0.0 | 0.0 | 0.00 | 0.51 | 0.51 | 96 | 1015.6 | |
| 20260507225030 | 13 | 0.0 | 0.0 | 0.00 | 0.51 | 0.51 | 96 | 1015.5 | |
| 20260507224033 | 13 | 0.0 | 0.0 | 0.00 | 0.51 | 0.51 | 96 | 1015.6 | |
| 20260507223030 | 13 | 0.0 | 0.0 | 0.00 | 0.51 | 0.51 | 96 | 1015.6 | |
| 20260507222023 | 13 | 0.0 | 0.0 | 0.00 | 0.51 | 0.51 | 96 | 1015.6 | |
| 20260507221032 | 13 | 0.0 | 0.0 | 0.00 | 0.51 | 0.51 | 96 | 1015.6 | |
| 20260507220052 | 13 | 0.0 | 0.0 | 0.03 | 0.51 | 0.51 | 96 | 1015.6 | |
| 20260507215050 | 13 | 0.0 | 0.0 | 0.03 | 0.51 | 0.51 | 96 | 1015.6 | |
| 20260507214032 | 13 | 0.0 | 0.0 | 0.03 | 0.51 | 0.51 | 96 | 1015.6 | |
| 20260507213050 | 13 | 0.0 | 0.0 | 0.05 | 0.51 | 0.51 | 96 | 1015.6 | |
| 20260507212032 | 12 | 0.0 | 0.0 | 0.10 | 0.51 | 0.51 | 96 | 1015.5 | |
| 20260507211030 | 12 | 0.0 | 0.0 | 0.13 | 0.51 | 0.51 | 95 | 1015.4 | |
| 20260507210052 | 12 | 0.0 | 0.0 | 0.13 | 0.48 | 0.48 | 95 | 1015.3 | |
| 20260507205031 | 12 | 0.0 | 0.0 | 0.15 | 0.48 | 0.48 | 95 | 1015.4 | |
| 20260507204022 | 13 | 0.0 | 0.0 | 0.18 | 0.48 | 0.48 | 95 | 1015.4 | |
| 20260507203036 | 13 | 0.0 | 0.0 | 0.20 | 0.46 | 0.46 | 95 | 1015.5 | |
| 20260507202022 | 12 | 0.0 | 0.0 | 0.20 | 0.41 | 0.41 | 94 | 1015.3 | |
| 20260507201031 | 12 | 0.0 | 0.0 | 0.23 | 0.38 | 0.38 | 94 | 1015.2 | |
| 20260507200023 | 13 | 0.0 | 0.0 | 0.23 | 0.36 | 0.36 | 94 | 1015.4 | |
| 20260507195030 | 13 | 0.0 | 0.0 | 0.20 | 0.33 | 0.33 | 94 | 1015.3 | |
| 20260507194033 | 13 | 0.0 | 0.0 | 0.18 | 0.30 | 0.30 | 93 | 1015.1 | |
| 20260507193051 | 13 | 0.0 | 0.0 | 0.13 | 0.25 | 0.25 | 93 | 1015.1 | |
| 20260507192033 | 13 | 0.0 | 0.0 | 0.08 | 0.20 | 0.20 | 92 | 1015.0 | |
| 20260507191030 | 13 | 0.0 | 0.0 | 0.05 | 0.15 | 0.15 | 91 | 1014.9 | |
| 20260507190033 | 13 | 0.0 | 0.0 | 0.03 | 0.13 | 0.13 | 90 | 1014.8 | |
| 20260507185030 | 13 | 0.0 | 0.0 | 0.05 | 0.13 | 0.13 | 89 | 1014.7 | |
| 20260507184032 | 14 | 0.0 | 0.0 | 0.08 | 0.13 | 0.13 | 89 | 1014.6 | |
| 20260507183030 | 15 | 0.0 | 0.0 | 0.08 | 0.13 | 0.13 | 88 | 1014.5 | |
| 20260507182033 | 15 | 0.0 | 0.0 | 0.08 | 0.13 | 0.13 | 85 | 1014.5 | |
| 20260507181036 | 15 | 5 | 0.0 | 1.6 | 0.05 | 0.10 | 0.10 | 90 | 1014.4 |
| 20260507180022 | 16 | 22 | 1.6 | 4.8 | 0.05 | 0.10 | 0.10 | 90 | 1014.2 |
| 20260507175056 | 16 | 0.0 | 0.0 | 0.03 | 0.08 | 0.08 | 88 | 1014.1 | |
| 20260507174028 | 16 | 0.0 | 0.0 | 0.00 | 0.05 | 0.05 | 87 | 1014.0 | |
| 20260507173050 | 16 | 115 | 0.0 | 1.6 | 0.00 | 0.05 | 0.05 | 87 | 1013.8 |
| 20260507172022 | 16 | 132 | 0.0 | 1.6 | 0.00 | 0.05 | 0.05 | 86 | 1013.9 |
| 20260507171030 | 17 | 132 | 0.0 | 1.6 | 0.00 | 0.05 | 0.05 | 86 | 1013.8 |
| 20260507170033 | 17 | 132 | 0.0 | 1.6 | 0.00 | 0.05 | 0.05 | 86 | 1013.8 |
| 20260507165030 | 17 | 133 | 0.0 | 1.6 | 0.00 | 0.05 | 0.05 | 86 | 1013.8 |
| 20260507164052 | 17 | 127 | 0.0 | 1.6 | 0.00 | 0.05 | 0.05 | 86 | 1013.7 |
| 20260507163031 | 17 | 124 | 0.0 | 1.6 | 0.00 | 0.05 | 0.05 | 86 | 1013.8 |
| 20260507162032 | 17 | 122 | 1.6 | 4.8 | 0.00 | 0.05 | 0.05 | 85 | 1013.8 |
| 20260507161031 | 17 | 116 | 1.6 | 4.8 | 0.00 | 0.05 | 0.05 | 84 | 1013.7 |
| 20260507160032 | 17 | 123 | 3.2 | 4.8 | 0.00 | 0.05 | 0.05 | 84 | 1013.7 |
| 20260507155030 | 17 | 136 | 3.2 | 6.4 | 0.00 | 0.05 | 0.05 | 83 | 1013.7 |
| 20260507154023 | 17 | 122 | 1.6 | 1.6 | 0.00 | 0.05 | 0.05 | 81 | 1013.7 |
| 20260507153030 | 17 | 0.0 | 0.0 | 0.00 | 0.05 | 0.05 | 79 | 1013.7 | |
| 20260507152053 | 18 | 122 | 0.0 | 1.6 | 0.00 | 0.05 | 0.05 | 77 | 1013.8 |
| 20260507151032 | 18 | 135 | 1.6 | 4.8 | 0.00 | 0.05 | 0.05 | 71 | 1013.6 |
| 20260507150032 | 20 | 180 | 3.2 | 8.0 | 0.00 | 0.05 | 0.05 | 60 | 1013.6 |
| 20260507145116 | 20 | 165 | 3.2 | 9.7 | 0.00 | 0.05 | 0.05 | 56 | 1013.6 |
| 20260507144052 | 20 | 162 | 1.6 | 9.7 | 0.00 | 0.05 | 0.05 | 55 | 1013.6 |
| 20260507143030 | 20 | 133 | 3.2 | 9.7 | 0.00 | 0.05 | 0.05 | 54 | 1013.7 |
| 20260507142033 | 20 | 123 | 1.6 | 6.4 | 0.00 | 0.05 | 0.05 | 58 | 1013.7 |
| 20260507141030 | 20 | 129 | 3.2 | 8.0 | 0.00 | 0.05 | 0.05 | 58 | 1013.7 |
| 20260507140032 | 20 | 145 | 1.6 | 8.0 | 0.03 | 0.05 | 0.05 | 58 | 1013.7 |
| 20260507135030 | 20 | 148 | 1.6 | 12.9 | 0.05 | 0.05 | 0.05 | 61 | 1013.7 |
| 20260507134053 | 19 | 112 | 0.0 | 4.8 | 0.05 | 0.05 | 0.05 | 64 | 1013.7 |
| 20260507133031 | 18 | 140 | 3.2 | 9.7 | 0.05 | 0.05 | 0.05 | 70 | 1013.8 |
| 20260507132053 | 18 | 184 | 0.0 | 4.8 | 0.05 | 0.05 | 0.05 | 80 | 1013.8 |
| 20260507131056 | 17 | 138 | 0.0 | 4.8 | 0.05 | 0.05 | 0.05 | 81 | 1013.8 |
| 20260507130023 | 18 | 84 | 1.6 | 4.8 | 0.03 | 0.03 | 0.03 | 76 | 1013.9 |
| 20260507125031 | 20 | 156 | 3.2 | 12.9 | 0.00 | 0.00 | 0.00 | 61 | 1013.7 |
| 20260507124030 | 21 | 65 | 1.6 | 8.0 | 0.00 | 0.00 | 0.00 | 60 | 1013.4 |
| 20260507123051 | 22 | 29 | 1.6 | 8.0 | 0.00 | 0.00 | 0.00 | 53 | 1013.4 |
| 20260507122032 | 22 | 13 | 4.8 | 12.9 | 0.00 | 0.00 | 0.00 | 51 | 1013.4 |
| 20260507121032 | 23 | 356 | 4.8 | 14.5 | 0.00 | 0.00 | 0.00 | 50 | 1013.4 |
| 20260507120023 | 22 | 140 | 3.2 | 12.9 | 0.00 | 0.00 | 0.00 | 50 | 1013.3 |
| 20260507115036 | 22 | 178 | 3.2 | 9.7 | 0.00 | 0.00 | 0.00 | 50 | 1013.3 |
| 20260507114023 | 22 | 171 | 3.2 | 14.5 | 0.00 | 0.00 | 0.00 | 51 | 1013.3 |
| 20260507113031 | 23 | 178 | 3.2 | 9.7 | 0.00 | 0.00 | 0.00 | 50 | 1013.4 |
| 20260507112024 | 24 | 134 | 3.2 | 9.7 | 0.00 | 0.00 | 0.00 | 46 | 1013.3 |
| 20260507111031 | 23 | 143 | 1.6 | 6.4 | 0.00 | 0.00 | 0.00 | 47 | 1013.4 |
| 20260507110032 | 23 | 164 | 6.4 | 17.7 | 0.00 | 0.00 | 0.00 | 46 | 1013.4 |
| 20260507105032 | 24 | 167 | 3.2 | 14.5 | 0.00 | 0.00 | 0.00 | 45 | 1013.4 |
| 20260507104032 | 24 | 189 | 4.8 | 16.1 | 0.00 | 0.00 | 0.00 | 45 | 1013.4 |
| 20260507103051 | 23 | 128 | 4.8 | 16.1 | 0.00 | 0.00 | 0.00 | 47 | 1013.6 |
| 20260507102032 | 23 | 186 | 6.4 | 14.5 | 0.00 | 0.00 | 0.00 | 48 | 1013.5 |
| 20260507101051 | 21 | 153 | 4.8 | 16.1 | 0.00 | 0.00 | 0.00 | 51 | 1013.7 |
| 20260507100033 | 22 | 190 | 4.8 | 16.1 | 0.00 | 0.00 | 0.00 | 50 | 1013.7 |
| 20260507095036 | 22 | 186 | 4.8 | 14.5 | 0.00 | 0.00 | 0.00 | 49 | 1013.7 |
| 20260507094032 | 21 | 181 | 4.8 | 12.9 | 0.00 | 0.00 | 0.00 | 52 | 1013.8 |
| 20260507093031 | 21 | 143 | 3.2 | 12.9 | 0.00 | 0.00 | 0.00 | 53 | 1013.6 |
| 20260507092024 | 21 | 173 | 3.2 | 9.7 | 0.00 | 0.00 | 0.00 | 54 | 1013.7 |
| 20260507091031 | 20 | 176 | 4.8 | 16.1 | 0.00 | 0.00 | 0.00 | 55 | 1013.6 |
| 20260507090033 | 20 | 131 | 1.6 | 6.4 | 0.00 | 0.00 | 0.00 | 57 | 1013.5 |
| 20260507085053 | 20 | 170 | 3.2 | 8.0 | 0.00 | 0.00 | 0.00 | 58 | 1013.5 |
| 20260507084023 | 20 | 164 | 3.2 | 6.4 | 0.00 | 0.00 | 0.00 | 58 | 1013.5 |
| 20260507083037 | 19 | 155 | 4.8 | 14.5 | 0.00 | 0.00 | 0.00 | 60 | 1013.5 |
| 20260507082023 | 19 | 167 | 1.6 | 6.4 | 0.00 | 0.00 | 0.00 | 59 | 1013.3 |
| 20260507081031 | 20 | 174 | 4.8 | 16.1 | 0.00 | 0.00 | 0.00 | 57 | 1013.4 |
| 20260507080033 | 20 | 183 | 3.2 | 9.7 | 0.00 | 0.00 | 0.00 | 58 | 1013.3 |
| 20260507075032 | 20 | 169 | 3.2 | 16.1 | 0.00 | 0.00 | 0.00 | 59 | 1013.2 |
| 20260507074034 | 20 | 160 | 3.2 | 9.7 | 0.00 | 0.00 | 0.00 | 60 | 1013.1 |
| 20260507073031 | 20 | 136 | 3.2 | 12.9 | 0.00 | 0.00 | 0.00 | 61 | 1013.0 |
| 20260507072033 | 19 | 152 | 3.2 | 6.4 | 0.00 | 0.00 | 0.00 | 61 | 1012.9 |
| 20260507071032 | 19 | 145 | 3.2 | 9.7 | 0.00 | 0.00 | 0.00 | 62 | 1013.0 |
| 20260507070043 | 18 | 152 | 3.2 | 8.0 | 0.00 | 0.00 | 0.00 | 63 | 1013.0 |
| 20260507065117 | 18 | 139 | 3.2 | 8.0 | 0.00 | 0.00 | 0.00 | 64 | 1012.9 |
| 20260507064023 | 18 | 154 | 1.6 | 4.8 | 0.00 | 0.00 | 0.00 | 66 | 1013.0 |
| 20260507063031 | 18 | 169 | 3.2 | 9.7 | 0.00 | 0.00 | 0.00 | 66 | 1013.0 |
| 20260507062107 | 18 | 166 | 1.6 | 6.4 | 0.00 | 0.00 | 0.00 | 67 | 1013.0 |
| 20260507061031 | 18 | 129 | 1.6 | 8.0 | 0.00 | 0.00 | 0.00 | 68 | 1012.8 |
| 20260507060032 | 17 | 168 | 1.6 | 6.4 | 0.00 | 0.00 | 0.00 | 69 | 1012.7 |
| 20260507055052 | 17 | 169 | 1.6 | 8.0 | 0.00 | 0.00 | 0.00 | 71 | 1012.8 |
| 20260507054023 | 17 | 158 | 1.6 | 9.7 | 0.00 | 0.00 | 0.00 | 74 | 1012.6 |
| 20260507053037 | 16 | 150 | 1.6 | 6.4 | 0.00 | 0.00 | 0.00 | 78 | 1012.5 |
| 20260507052023 | 16 | 131 | 0.0 | 4.8 | 0.00 | 0.00 | 0.00 | 81 | 1012.5 |
| 20260507051052 | 16 | 134 | 1.6 | 4.8 | 0.00 | 0.00 | 0.00 | 82 | 1012.3 |
| 20260507050024 | 15 | 119 | 0.0 | 1.6 | 0.00 | 0.00 | 0.00 | 84 | 1012.2 |
| 20260507045032 | 15 | 119 | 0.0 | 1.6 | 0.00 | 0.00 | 0.00 | 84 | 1012.2 |
| 20260507044023 | 15 | 196 | 0.0 | 1.6 | 0.00 | 0.00 | 0.00 | 84 | 1012.1 |
| 20260507043032 | 15 | 196 | 0.0 | 1.6 | 0.00 | 0.00 | 0.00 | 86 | 1011.9 |
| 20260507042043 | 15 | 197 | 0.0 | 1.6 | 0.00 | 0.00 | 0.00 | 87 | 1011.8 |
| 20260507041031 | 15 | 0.0 | 0.0 | 0.00 | 0.00 | 0.00 | 87 | 1011.8 | |
| 20260507040044 | 15 | 0.0 | 0.0 | 0.00 | 0.00 | 0.00 | 87 | 1011.7 | |
| 20260507035031 | 15 | 0.0 | 0.0 | 0.00 | 0.00 | 0.00 | 87 | 1011.6 | |
| 20260507034033 | 15 | 0.0 | 0.0 | 0.00 | 0.00 | 0.00 | 87 | 1011.5 | |
| 20260507033053 | 15 | 0.0 | 0.0 | 0.00 | 0.00 | 0.00 | 88 | 1011.4 | |
| 20260507032023 | 15 | 0.0 | 0.0 | 0.00 | 0.00 | 0.00 | 89 | 1011.4 | |
| 20260507031032 | 15 | 0.0 | 0.0 | 0.00 | 0.00 | 0.00 | 89 | 1011.4 | |
| 20260507030023 | 15 | 0.0 | 0.0 | 0.00 | 0.00 | 0.00 | 89 | 1011.5 | |
| 20260507025031 | 15 | 0.0 | 0.0 | 0.00 | 0.00 | 0.00 | 89 | 1011.4 | |
| 20260507024044 | 15 | 0.0 | 0.0 | 0.00 | 0.00 | 0.00 | 89 | 1011.3 | |
| 20260507023032 | 15 | 0.0 | 0.0 | 0.00 | 0.00 | 0.00 | 88 | 1011.4 | |
| 20260507022023 | 15 | 0.0 | 0.0 | 0.00 | 0.00 | 0.00 | 88 | 1011.5 | |
| 20260507021032 | 15 | 0.0 | 0.0 | 0.00 | 0.00 | 0.00 | 87 | 1011.4 | |
| 20260507020023 | 15 | 0.0 | 0.0 | 0.00 | 0.00 | 0.00 | 87 | 1011.5 | |
| 20260507015032 | 15 | 0.0 | 0.0 | 0.00 | 0.00 | 0.00 | 86 | 1011.5 | |
| 20260507014032 | 15 | 0.0 | 0.0 | 0.00 | 0.00 | 0.00 | 86 | 1011.4 | |
| 20260507013032 | 15 | 125 | 0.0 | 1.6 | 0.00 | 0.00 | 0.00 | 86 | 1011.5 |
| 20260507012023 | 15 | 0.0 | 0.0 | 0.00 | 0.00 | 0.00 | 85 | 1011.2 | |
| 20260507011057 | 16 | 0.0 | 0.0 | 0.00 | 0.00 | 0.00 | 83 | 1011.3 | |
| 20260507010024 | 16 | 0.0 | 0.0 | 0.00 | 0.00 | 0.00 | 80 | 1011.3 | |
| 20260507005032 | 16 | 108 | 0.0 | 1.6 | 0.00 | 0.00 | 0.00 | 78 | 1011.3 |
| 20260507004025 | 16 | 143 | 0.0 | 1.6 | 0.00 | 0.00 | 0.00 | 76 | 1011.1 |
| 20260507003051 | 16 | 110 | 1.6 | 8.0 | 0.00 | 0.00 | 0.00 | 75 | 1011.3 |
| 20260507002023 | 17 | 355 | 1.6 | 6.4 | 0.00 | 0.00 | 0.00 | 75 | 1011.2 |
| 20260507001052 | 17 | 78 | 0.0 | 1.6 | 0.00 | 0.00 | 0.00 | 74 | 1011.3 |
| 20260507000023 | 17 | 94 | 0.0 | 4.8 | 0.00 | 0.00 | 0.00 | 74 | 1011.5 |
| 20260506235037 | 17 | 143 | 0.0 | 6.4 | 0.00 | 0.00 | 0.00 | 72 | 1011.5 |
| 20260506234024 | 17 | 77 | 0.0 | 8.0 | 0.00 | 0.00 | 0.00 | 70 | 1011.5 |
| 20260506233032 | 17 | 26 | 1.6 | 12.9 | 0.00 | 0.00 | 0.00 | 69 | 1011.5 |
| 20260506232024 | 17 | 80 | 1.6 | 4.8 | 0.00 | 0.00 | 0.00 | 70 | 1011.6 |